Danville, VA

4:59 AM EDT on August 21, 2017 (GMT -0400)
Danville Regional

Weather History for KDAN - May, 2012

Change the Weather History Date:

Monday, May 28, 2012

  Actual Average Record
Temperature  
Mean Temperature 78 °F 70 °F  
Max Temperature 88 °F 80 °F 97 °F (1965)
Min Temperature 68 °F 60 °F 38 °F (1961)
Degree Days  
Heating Degree Days 0 1  
Month to date heating degree days 28 66  
Since 1 July heating degree days 3279 3809  
Cooling Degree Days 13 5  
Month to date cooling degree days 138 92  
Year to date cooling degree days 166 126  
Growing Degree Days 28 (Base 50)    
Moisture  
Dew Point 67 °F    
Average Humidity 68    
Maximum Humidity 90    
Minimum Humidity 46    
Precipitation  
Precipitation 0.00 in 0.14 in 1.85 in (1996)
Month to date precipitation 1.80 3.45  
Year to date precipitation 12.22 17.45  
Snow  
Snow 0.00 in - - ()
Month to date snowfall 0.0  
Since 1 July snowfall 3.0  
Snow Depth 0.00 in    
Sea Level Pressure  
Sea Level Pressure 30.04 in    
Wind  
Wind Speed 3 mph (SW)    
Max Wind Speed 10 mph    
Max Gust Speed 16 mph    
Visibility 10 miles    
Events      
T = Trace of Precipitation, MM = Missing Value Source: NWS Daily Summary

Daily Weather History Graph

Daily Weather History Graph

Search for Another Location

Airport or City:

Trip Planner

Search our weather history database for the weather conditions in past years. The results will help you decide how hot, cold, wet, or windy it might be!

Date:

Astronomy

May. 28, 2012 Rise Set
Actual Time 6:01 AM EDT 8:27 PM EDT
Civil Twilight 5:32 AM EDT 8:57 PM EDT
Nautical Twilight 4:55 AM EDT 9:34 PM EDT
Astronomical Twilight 4:14 AM EDT 10:15 PM EDT
Moon 1:02 PM EDT (5/28) 1:11 AM EDT (5/28)
Length of Visible Light 15h 25m
Length of Day
14h 26m
Waxing Crescent, 48% of the Moon is Illuminated
May 28
Waxing Crescent
May 28
First Quarter
Jun 4
Full
Jun 11
Last Quarter
Jun 19
New

Hourly Weather History & Observations

Time (EDT) Temp. Heat Index Dew Point Humidity Pressure Visibility Wind Dir Wind Speed Gust Speed Precip Events Conditions
12:53 AM 70.0 °F - 66.0 °F 87% 30.08 in 10.0 mi Calm Calm - N/A   Clear
1:53 AM 72.0 °F - 68.0 °F 87% 30.08 in 10.0 mi Calm Calm - N/A   Overcast
2:53 AM 72.0 °F - 68.0 °F 87% 30.08 in 10.0 mi Calm Calm - N/A   Overcast
3:30 AM 71.6 °F - 66.2 °F 83% 30.10 in 10.0 mi Calm Calm - N/A   Partly Cloudy
3:53 AM 71.1 °F - 66.9 °F 87% 30.07 in 10.0 mi North 3.5 mph - N/A   Scattered Clouds
4:01 AM 69.8 °F - 66.2 °F 88% 30.09 in 10.0 mi Calm Calm - N/A   Mostly Cloudy
4:50 AM 69.8 °F - 68.0 °F 94% 30.08 in 10.0 mi Calm Calm - N/A   Scattered Clouds
4:53 AM 70.0 °F - 66.9 °F 90% 30.04 in 10.0 mi Calm Calm - N/A   Scattered Clouds
5:50 AM 69.8 °F - 66.2 °F 88% 30.06 in 7.0 mi SW 4.6 mph - N/A   Mostly Cloudy
5:53 AM 69.1 °F - 66.9 °F 93% 30.03 in 7.0 mi SW 4.6 mph - N/A   Mostly Cloudy
6:53 AM 71.1 °F - 68.0 °F 90% 30.04 in 8.0 mi WSW 4.6 mph - N/A   Overcast
7:11 AM 71.6 °F - 68.0 °F 88% 30.08 in 10.0 mi WSW 4.6 mph - N/A   Overcast
7:53 AM 73.0 °F - 68.0 °F 84% 30.06 in 10.0 mi West 3.5 mph - N/A   Overcast
8:53 AM 75.0 °F - 68.0 °F 79% 30.07 in 10.0 mi SW 5.8 mph - N/A   Overcast
9:13 AM 77.0 °F - 69.8 °F 78% 30.11 in 10.0 mi SW 6.9 mph - N/A   Overcast
9:53 AM 78.1 °F - 68.0 °F 71% 30.08 in 10.0 mi West 3.5 mph - N/A   Overcast
10:53 AM 80.1 °F 82.9 °F 69.1 °F 69% 30.07 in 10.0 mi Variable 3.5 mph - N/A   Overcast
11:44 AM 82.4 °F 85.4 °F 68.0 °F 62% 30.10 in 10.0 mi South 5.8 mph - N/A   Mostly Cloudy
11:53 AM 82.0 °F 84.9 °F 68.0 °F 62% 30.07 in 10.0 mi Calm Calm - N/A   Mostly Cloudy
12:53 PM 84.0 °F 87.8 °F 69.1 °F 61% 30.06 in 10.0 mi Variable 4.6 mph - N/A   Mostly Cloudy
1:53 PM 84.9 °F 87.6 °F 66.9 °F 55% 30.04 in 10.0 mi SW 5.8 mph - N/A   Partly Cloudy
2:53 PM 84.9 °F 87.1 °F 66.0 °F 53% 30.01 in 10.0 mi SSW 5.8 mph - N/A   Partly Cloudy
3:53 PM 87.1 °F 88.9 °F 64.9 °F 48% 29.99 in 10.0 mi Variable 5.8 mph - N/A   Clear
4:53 PM 87.1 °F 88.9 °F 64.9 °F 48% 29.97 in 10.0 mi SW 4.6 mph - N/A   Clear
5:53 PM 87.1 °F 88.9 °F 64.9 °F 48% 29.98 in 10.0 mi South 5.8 mph - N/A   Clear
6:53 PM 86.0 °F 87.6 °F 64.9 °F 49% 29.96 in 10.0 mi SSW 4.6 mph - N/A   Clear
7:53 PM 82.9 °F 85.8 °F 68.0 °F 60% 29.96 in 10.0 mi Calm Calm - N/A   Clear
8:53 PM 80.1 °F 82.3 °F 66.9 °F 64% 29.97 in 10.0 mi South 3.5 mph - N/A   Partly Cloudy
9:53 PM 77.0 °F - 66.0 °F 69% 29.99 in 10.0 mi South 3.5 mph - N/A   Clear
10:53 PM 75.0 °F - 64.9 °F 71% 30.01 in 10.0 mi South 3.5 mph - N/A   Clear
11:53 PM 73.0 °F - 64.9 °F 76% 30.00 in 10.0 mi Calm Calm - N/A   Clear